ONEWEB-0049 (45154 NORAD) Tracking and Keplerian Element Data

This shows tracking and keplerian element data for the satellite.

Feedback or suggestion? Click here.




ElementValue
Catalog45154
NameONEWEB-0049
Epoch Orbit929
Epoch Day94.0973141
Epoch Year2020
RAAN145.4586
Inclination87.447
Eccentricity0.0024453
Argument of Perigee98.3272
Mean Anonmoly262.072
Mean Motion14.72181129
Decay Rate-0.00342125
L11 45154U 20008Z 20094.09731410 -.00342125 00000-0 -56854-1 0 9997
L22 45154 87.4470 145.4586 0024453 98.3272 262.0720 14.72181129 9298

Live tracking and technical data element details for ONEWEB-0049 (NORAD 45154). ONEWEB-0049 can be tracked NOW for your location showing map with azimuth and elevation plus other details from your city location.

Track the satellite on the map from your city or location and see movement details for azimuth, elevation, latitude, longitude, range, height, and movement on the map or in text.







IsCatalogInMostPopularTable: catalog: 45154, numindb: 11
Update: records affected: 1



GetName: 45154 ONEWEB-0049

Hit Count: updated at: Fri, 10 Apr 2020 19:20:57 GMT